Flag for U.S.A. Weather past 2 weeks in Rapid City, South Dakota, U.S.A.

Now
39 °F

Partly sunny.


Feels Like: 28 °F
Forecast: 27 / 38 °F
Wind: 30 mph from Northwest

Location: Ellsworth Air Force Base

Current Time: Dec 22, 2014 at 10:22:57 AM

Latest Report: Dec 22, 2014 at 7:58 AM


Visibility: 10 mi

Pressure: 29.57 "Hg

Humidity: 50%

Dew point: 22 °F

Location of Rapid CityLocation

Historic Weather in Rapid City — Graph

°F

Rapid City temperature yesterday

Maximum temperature yesterday: 46 °F (at 12:58 PM)
Minimum temperature yesterday: 24 °F (at 1:58 AM)
Average temperature yesterday: 37 °F

Past Weeks' High & Low Weather Summary

 TemperatureHumidityPressure
High67 °F (Dec 12, 12:58 PM)100% (Dec 17, 8:58 PM)30.41 "Hg (Dec 17, 8:58 PM)
Low18 °F (Dec 16, 11:58 PM)20% (Dec 11, 2:58 PM)29.43 "Hg (Dec 21, 12:58 PM)
Average35 °F68%30.02 "Hg
* Reported Dec 7 7:58 AM — Dec 22 7:58 AM, Rapid City, Weather by CustomWeather, © 2014

Note: Actual official high and low records may vary slightly from our data, if they occured in-between our weather recording intervals... More about our weather records

Advertising

Rapid City weather history for previous 24 hours

 ConditionsComfort  
Time TempWeatherWind HumidityBarometerVisibility
7:58 AM
Dec 22
39 °FPartly sunny.30 mph50%29.57 "Hg10 mi
5:58 AM40 °FPassing clouds.30 mph52%29.56 "Hg10 mi
4:58 AM41 °FPassing clouds.35 mph53%29.54 "Hg10 mi
3:58 AM41 °FPassing clouds.22 mph57%29.54 "Hg10 mi
2:58 AM40 °FPassing clouds.29 mph65%29.54 "Hg10 mi
1:58 AM39 °FPassing clouds.30 mph74%29.54 "Hg10 mi
12:58 AM39 °FPassing clouds.26 mph77%29.54 "Hg10 mi
11:58 PM
Dec 21
38 °FLight rain. Overcast.31 mph89%29.54 "Hg10 mi
10:58 PM39 °FLight rain. Overcast.24 mph85%29.53 "Hg10 mi
9:58 PM41 °FMostly cloudy.23 mph74%29.50 "Hg10 mi
8:58 PM41 °FPassing clouds.24 mph77%29.51 "Hg10 mi
7:58 PM39 °FPassing clouds.10 mph85%29.51 "Hg10 mi
6:58 PM39 °FPassing clouds.13 mph84%29.49 "Hg10 mi
6:03 PM41 °FMostly cloudy.20 mph81%29.44 "Hg10 mi
5:58 PM43 °FLight rain. Mostly cloudy.18 mph71%29.50 "Hg10 mi
4:58 PM40 °FMostly cloudy.6 mph61%29.48 "Hg10 mi
3:58 PM43 °FLight rain. Overcast.8 mph50%29.46 "Hg10 mi
2:58 PM44 °FScattered clouds.9 mph47%29.45 "Hg10 mi
1:58 PM44 °FPartly sunny.15 mph49%29.45 "Hg10 mi
12:58 PM46 °FOvercast.6 mph47%29.43 "Hg10 mi
11:58 AM43 °FMostly cloudy.No wind50%29.46 "Hg10 mi
10:58 AM41 °FMore clouds than sun.5 mph55%29.49 "Hg10 mi
Weather by CustomWeather, © 2014

See weather overviewHow to use our weather pages